KJ4TDM Weather Reports


time (UTC)temp
C
wind
direction
speed
KPH
gust
KPH
rain 1hr
cm
rain 24hr
cm
rain mn
cm
humidity
%
barometer
mb
20260504204615 27 149 0.0 3.2 0.00 0.00 0.00 38 1013.9
20260504203110 27 261 0.0 0.0 0.00 0.00 0.00 42 1014.1
20260504201539 26 213 0.0 1.6 0.00 0.00 0.00 42 1014.3
20260504200127 27 182 0.0 1.6 0.00 0.00 0.00 42 1014.5
20260504194554 26 184 0.0 4.8 0.00 0.00 0.00 44 1014.7
20260504193010 26 127 0.0 1.6 0.00 0.00 0.00 44 1015.0
20260504191605 26 211 0.0 1.6 0.00 0.00 0.00 44 1015.1
20260504190047 26 157 0.0 0.0 0.00 0.00 0.00 44 1015.4
20260504184505 26 207 0.0 1.6 0.00 0.00 0.00 44 1015.5
20260504183055 25 262 0.0 1.6 0.00 0.00 0.00 47 1015.8
20260504181512 25 166 0.0 1.6 0.00 0.00 0.00 44 1016.1
20260504174545 25 179 0.0 0.0 0.00 0.00 0.00 47 1016.3
20260504173111 25 246 0.0 3.2 0.00 0.00 0.00 47 1016.5
20260504171553 24 257 0.0 3.2 0.00 0.00 0.00 50 1016.7
20260504120115 7 279 0.0 0.0 0.00 0.00 0.00 95 1018.4
20260504090116 6 279 0.0 0.0 0.00 0.00 0.00 93 1017.7
20260504081607 7 279 0.0 0.0 0.00 0.00 0.00 92 1017.6
20260504070112 7 278 0.0 0.0 0.00 0.00 0.00 92 1017.9
20260504060111 8 278 0.0 0.0 0.00 0.00 0.00 92 1018.4
20260504050021 8 278 0.0 0.0 0.00 0.00 0.00 89 1019.0
20260504044613 9 278 0.0 0.0 0.00 0.00 0.00 89 1018.9
20260504043056 9 278 0.0 0.0 0.00 0.00 0.00 88 1018.9
20260504041537 10 278 0.0 0.0 0.00 0.00 0.00 88 1019.0
20260504040117 10 278 0.0 0.0 0.00 0.00 0.00 88 1019.0
20260504034611 10 278 0.0 0.0 0.00 0.00 0.00 86 1019.1
20260504033031 10 278 0.0 0.0 0.00 0.00 0.00 85 1019.2
20260504031610 11 278 0.0 0.0 0.00 0.00 0.00 82 1019.4
20260504030108 11 278 0.0 0.0 0.00 0.00 0.00 81 1019.2
20260504024504 11 278 0.0 0.0 0.00 0.00 0.00 79 1019.2
20260504023103 12 278 0.0 0.0 0.00 0.00 0.00 77 1018.9
20260504021549 12 278 0.0 0.0 0.00 0.00 0.00 75 1018.8
20260504020114 12 278 0.0 0.0 0.00 0.00 0.00 73 1018.6
20260504014603 13 278 0.0 0.0 0.00 0.00 0.00 70 1018.5
20260504013013 13 278 0.0 0.0 0.00 0.00 0.00 70 1018.3
20260504011605 14 278 0.0 0.0 0.00 0.00 0.00 65 1018.2
20260504010049 15 278 0.0 0.0 0.00 0.00 0.00 65 1018.2
20260504004531 16 278 0.0 0.0 0.00 0.00 0.00 61 1018.1
20260504003105 17 278 0.0 0.0 0.00 0.00 0.00 58 1017.9
20260504001558 18 278 0.0 0.0 0.00 0.00 0.00 53 1017.9
20260504000114 21 278 0.0 0.0 0.00 0.00 0.00 46 1017.9
20260503234550 22 278 0.0 0.0 0.00 0.00 0.00 40 1017.9
20260503233035 22 277 0.0 0.0 0.00 0.00 0.00 38 1017.9
20260503231604 22 277 0.0 0.0 0.00 0.00 0.00 39 1017.9
20260503230045 22 277 0.0 0.0 0.00 0.00 0.00 37 1017.9
20260503224502 22 292 0.0 0.0 0.00 0.00 0.00 38 1017.9
20260503223054 22 344 0.0 1.6 0.00 0.00 0.00 37 1018.2
20260503221509 22 284 0.0 1.6 0.00 0.00 0.00 32 1018.3
20260503220104 22 288 0.0 1.6 0.00 0.00 0.00 36 1018.4
20260503214549 22 261 0.0 12.9 0.00 0.00 0.00 34 1018.5
20260503213116 22 286 0.0 1.6 0.00 0.00 0.00 33 1018.6
20260503211600 22 15 0.0 0.0 0.00 0.00 0.00 32 1018.7
20260503210016 22 284 0.0 11.3 0.00 0.00 0.00 31 1019.0